Regional Weather Roundup
Issued by NWS Charleston, SC

Current Version | Previous Version | Text Only | Print | Product List | Glossary Off
Versions: 1 2 3 4 5 6 7 8 9 10 11 12 13 14 15 16 17 18 19 20 21 22 23 24 25 26 27 28 29 30 31 32 33 34 35 36 37 38 39 40 41 42 43 44 45 46 47 48 49 50

534
ASUS42 KCHS 261612
RWRCHS

REGIONAL WEATHER ROUNDUP
NATIONAL WEATHER SERVICE CHARLESTON SC
1200 PM EDT WED APR 26 2017

NOTE: "FAIR" INDICATES FEW OR NO CLOUDS BELOW 12,000 FEET WITH NO
SIGNIFICANT WEATHER AND/OR OBSTRUCTIONS TO VISIBILITY.

NOT ALL STATIONS ARE QUALITY CONTROLLED. USE DATA WITH CAUTION...
ESPECIALLY DEWPOINT OBSERVATIONS.

SCZ027-030-031-034>040-042>050-261700-
...SOUTHEAST SOUTH CAROLINA...

CITY           SKY/WX    TMP DP  RH WIND       PRES   REMARKS
N CHARLESTON   FAIR      82  59  45 W10       29.87S
WATERFRONT PRK   N/A     78  62  57 SW6       29.85R
JOHNS ISLAND   FAIR      82  61  47 SW8G14    29.88R
PINOPOLIS        N/A     75  64  69 CALM      29.81R
MONCKS CORNER  FAIR      79  57  47 SW7       29.87S
SUMMERVILLE    FAIR      79  61  53 SW6       29.88S
BEAUFORT MCAS  FAIR      83  60  45 SW6       29.88S
BEAUFORT ARPT  FAIR      79  61  53 S8        29.88S
HILTON HEAD IS SUNNY     75  64  69 S9        29.90R
WALTERBORO     FAIR      79  59  50 W7        29.88S
ALLENDALE      FAIR      81  57  44 VRB7      29.86S

...SOUTHERN MIDLANDS AND PEE DEE...

CITY           SKY/WX    TMP DP  RH WIND       PRES   REMARKS
GEORGETOWN     CLOUDY    77  64  65 CALM      29.88S
KINGSTREE      FAIR      79  61  53 SW5       29.87S
ORANGEBURG     FAIR      80  59  48 SW8       29.87R
BARNWELL       FAIR      81  61  50 SW8       29.87S
AIKEN          FAIR      79  57  47 W9        29.90S
MANNING        FAIR      77  63  61 S8G16     29.87S
COLUMBIA       FAIR      82  57  42 W12       29.85S
SUMTER         FAIR      79  61  53 W8        29.84S
FLORENCE       FAIR      77  63  61 SW6       29.86F
MYRTLE BEACH   MOSUNNY   72  64  78 S8        29.89S
N MYRTLE BEACH CLOUDY    73  63  70 S5        29.88R

$$

GAZ063-065-086>088-099>101-113>116-118-119-134>141-150-261700-
...SOUTHEAST GEORGIA...

CITY           SKY/WX    TMP DP  RH WIND       PRES   REMARKS
SAVANNAH ARPT  FAIR      81  57  43 VRB3      29.88S
HUNTER AAF     FAIR      80  65  59 S6        29.86S
FORT STEWART   FAIR      81  57  44 W6        29.86S
STATESBORO     FAIR      81  57  43 W7        29.88S
SYLVANIA       FAIR     N/A N/A N/A W3        29.89S
CLAXTON        FAIR      80  63  56 W5        29.88F

...CSRA...CENTRAL AND FAR SOUTHEAST GEORGIA...

CITY           SKY/WX    TMP DP  RH WIND       PRES   REMARKS
THOMSON        FAIR      78  56  47 NW5       29.92S
AUGUSTA-BUSH   FAIR      83  59  44 VRB6      29.85S
AUGUSTA-DANIEL FAIR      80  55  42 SW6       29.87S
SWAINSBORO     FAIR      79  57  47 S5        29.88F
VIDALIA        FAIR      79  57  47 CALM      29.88F
EASTMAN        FAIR      78  48  33 CALM      29.90S
HAZLEHURST     FAIR      80  61  53 W3        29.88S
ALMA           FAIR      78  59  51 SW6       29.89R
WAYCROSS       FAIR      81  64  54 W7        29.89S
JESUP          FAIR      81  55  41 S6        29.89S
BAXLEY         FAIR      79  63  57 SW3       29.88S
BRUNSWICK      FAIR      79  63  57 W5        29.90S
SAINT SIMONS   FAIR      77  59  53 SW6       29.89S

$$

SCZ027-028-034-036>038-045-046-048>050-GAZ119-141-261700-
...LAKE AND SUPPLEMENTAL COASTAL OBSERVATIONS...

STATION/POSITION TIME  TEMP    WIND        PRES    WAVE   SWELL
                       AIR SEA DIR/SP/G            HT/PER HT/PER/DIR
                 (UTC) (F)     (DEG/KT/KT) (MB)    (FT/S) (FT/S/D)
WINYAH BAY       NOT AVBL
LAKE MURRAY      1520   73     190/  5/  6 1010.5S
ACE BASIN NERRS  1445   77     260/  2     1011.0
FORT PULASKI     1548   73 73  190/  5/  6 1012.6R
SAPELO ISLAND    1500   74        CALM     1012.0

$$

ANZ835-935-AMZ111-154-330-350-352-354-370-450-454-472-261700-
...C-MAN AND BUOY OBSERVATIONS...

STATION/POSITION TIME  TEMP    WIND        PRES    WAVE   SWELL
                       AIR SEA DIR/SP/G            HT/PER HT/PER/DIR
                 (UTC) (F)     (DEG/KT/KT) (MB)    (FT/S) (FT/S/D)
BUOY 41004       1550   72 73  250/ 12/ 16 1012.0R   4/ 9   3/120/ 9
BUOY 41008       1450   70 72  220/  6/  8 1012.0    3/10   2/ 90/10
FOLLY BEACH CMAN 1500   77     240/  6/  8 1012.1R
CAPERS NEARSHORE 1508   73 72  240/ 10/ 12 1011.3R
FRIPP NEARSHORE  1508   70 71  220/ 10/ 12 1012.0R


STATION/POSITION TIME  TEMP    WIND        PRES    WAVE   SWELL
                       AIR SEA DIR/SP/G            HT/PER HT/PER/DIR
                 (UTC) (F)     (DEG/KT/KT) (MB)    (FT/S) (FT/S/D)
5E ST. MARYS GA  1530      73                N/A     2/10   2/ 90/11
FRYING PAN BUOY  1550   70 74  310/  4/  6 1012.1R   4/ 9   3/130/ 9
BUOY 41025       1550   68 76  280/ 10/ 14 1010.5R   7/ 9   7/150/ 9
CAPE LOOKOUT NC  1500   66     290/ 10/ 12 1010.5R
BUOY 41002       1550   74 75  230/ 17/ 19 1012.6R   8/ 8   3/ 40/13
BUOY 41010       1550   76 76  190/ 14/ 19 1012.6R   5/ 9   3/110/ 9
ST AUGUSTINE FL  1600   74 73  180/  5/  9 1013.5R


$$




USA.gov is the U.S. government's official web portal to all federal, state and local government web resources and services.